GEC4PR EDDF-EKCH

Flight info

Callsign GEC4PR
Flight time 1h 7m
Altitude 35000
Route MARUN3W/25C MARUN Y150 TOLGI DCT SAS DCT MAKEL N851 GESKA Z711 MONAK
Aircraft MD11/H-SDE1E2E3FGHIJ2J3J4J5M1RWXY/LB1D1

Departure

Time 2026-05-04 19:00
Airport Frankfurt Main Airport (EDDF)

Arrival

Time 2026-05-04 20:07
Airport Copenhagen Kastrup Airport (EKCH)
Time Latitude Longitude Altitude Speed Heading
2026-05-04 18:29 50.04120 8.54734 359 ft 0 kts 71°
2026-05-04 18:46 50.04120 8.54733 359 ft 1 kts 71°
2026-05-04 18:46 50.04112 8.54699 366 ft 4 kts 70°
2026-05-04 18:46 50.04103 8.54659 364 ft 4 kts 70°
2026-05-04 18:46 50.04094 8.54620 364 ft 4 kts 69°
2026-05-04 18:47 50.04084 8.54581 363 ft 4 kts 69°
2026-05-04 18:47 50.04079 8.54558 361 ft 1 kts 70°
2026-05-04 18:51 50.04080 8.54567 363 ft 2 kts 74°
2026-05-04 18:51 50.04073 8.54609 364 ft 6 kts 119°
2026-05-04 18:51 50.04035 8.54651 364 ft 7 kts 154°
2026-05-04 18:52 50.03983 8.54692 363 ft 9 kts 144°
2026-05-04 18:52 50.03965 8.54780 362 ft 10 kts 81°
2026-05-04 18:52 50.03986 8.54898 362 ft 11 kts 84°
2026-05-04 18:52 50.03949 8.54977 363 ft 11 kts 155°
2026-05-04 18:53 50.03867 8.55041 366 ft 14 kts 137°
2026-05-04 18:53 50.03864 8.55173 361 ft 13 kts 73°
2026-05-04 18:53 50.03896 8.55311 364 ft 14 kts 70°
2026-05-04 18:53 50.03930 8.55452 364 ft 14 kts 70°
2026-05-04 18:54 50.03963 8.55595 361 ft 15 kts 70°
2026-05-04 18:54 50.03998 8.55741 366 ft 14 kts 69°
2026-05-04 18:54 50.04033 8.55882 364 ft 14 kts 69°
2026-05-04 18:54 50.04066 8.56016 363 ft 13 kts 69°
2026-05-04 18:55 50.04096 8.56146 363 ft 13 kts 71°
2026-05-04 18:55 50.04154 8.56396 367 ft 12 kts 70°
2026-05-04 18:55 50.04186 8.56527 366 ft 15 kts 69°
2026-05-04 18:56 50.04228 8.56705 368 ft 20 kts 70°
2026-05-04 18:56 50.04282 8.56927 370 ft 24 kts 69°
2026-05-04 18:56 50.04342 8.57173 372 ft 23 kts 69°
2026-05-04 18:56 50.04394 8.57398 371 ft 21 kts 71°
2026-05-04 18:57 50.04443 8.57601 376 ft 18 kts 68°
2026-05-04 18:57 50.04484 8.57773 375 ft 16 kts 70°
2026-05-04 18:57 50.04509 8.57877 375 ft 11 kts 70°
2026-05-04 18:57 50.04531 8.57971 374 ft 16 kts 69°
2026-05-04 18:58 50.04579 8.58171 375 ft 20 kts 70°
2026-05-04 18:58 50.04622 8.58353 377 ft 16 kts 69°
2026-05-04 18:58 50.04650 8.58507 376 ft 12 kts 96°
2026-05-04 18:58 50.04605 8.58580 376 ft 8 kts 155°
2026-05-04 18:59 50.04559 8.58607 377 ft 7 kts 165°
2026-05-04 18:59 50.04505 8.58590 378 ft 10 kts 213°
2026-05-04 18:59 50.04462 8.58478 377 ft 16 kts 248°
2026-05-04 18:59 50.04382 8.58142 376 ft 59 kts 250°
2026-05-04 19:00 50.04155 8.57187 378 ft 140 kts 250°
2026-05-04 19:00 50.03712 8.55416 673 ft 197 kts 250°
2026-05-04 19:00 50.03212 8.53422 1871 ft 195 kts 251°
2026-05-04 19:00 50.02706 8.51648 3385 ft 179 kts 242°
2026-05-04 19:01 50.01968 8.49939 3980 ft 205 kts 225°
2026-05-04 19:01 50.00794 8.48714 4866 ft 206 kts 200°
2026-05-04 19:01 49.99407 8.48145 5759 ft 209 kts 191°
2026-05-04 19:01 49.97935 8.47723 6194 ft 219 kts 190°
2026-05-04 19:02 49.96438 8.47225 6565 ft 222 kts 202°
2026-05-04 19:02 49.95197 8.45717 7108 ft 237 kts 234°
2026-05-04 19:02 49.94607 8.43302 8035 ft 245 kts 258°
2026-05-04 19:02 49.94420 8.40649 9004 ft 249 kts 263°
2026-05-04 19:03 49.94502 8.37907 9810 ft 266 kts 276°
2026-05-04 19:03 49.95196 8.35110 10316 ft 290 kts 300°
2026-05-04 19:03 49.96676 8.32771 10643 ft 325 kts 323°
2026-05-04 19:03 49.98786 8.31045 10820 ft 359 kts 334°
2026-05-04 19:04 50.01152 8.29583 11518 ft 371 kts 338°
2026-05-04 19:04 50.03658 8.28490 12423 ft 378 kts 348°
2026-05-04 19:04 50.06301 8.28428 13488 ft 373 kts 11°
2026-05-04 19:04 50.08683 8.29592 15108 ft 360 kts 18°
2026-05-04 19:05 50.11131 8.30923 15256 ft 386 kts 18°
2026-05-04 19:05 50.13707 8.32319 15534 ft 404 kts 18°
2026-05-04 19:05 50.16380 8.33756 16257 ft 408 kts 18°
2026-05-04 19:05 50.19085 8.35198 16988 ft 412 kts 18°
2026-05-04 19:06 50.21820 8.36649 17713 ft 417 kts 18°
2026-05-04 19:06 50.24582 8.38109 18390 ft 422 kts 18°
2026-05-04 19:06 50.27371 8.39582 18996 ft 426 kts 18°
2026-05-04 19:06 50.30185 8.41086 19596 ft 429 kts 18°
2026-05-04 19:07 50.33021 8.42623 20152 ft 433 kts 18°
2026-05-04 19:07 50.35876 8.44180 20745 ft 437 kts 18°
2026-05-04 19:07 50.38759 8.45757 21324 ft 440 kts 18°
2026-05-04 19:07 50.41653 8.47405 21840 ft 445 kts 23°
2026-05-04 19:08 50.44339 8.49860 22442 ft 449 kts 36°
2026-05-04 19:08 50.46805 8.52889 23010 ft 453 kts 39°
2026-05-04 19:08 50.49231 8.56083 23596 ft 457 kts 40°
2026-05-04 19:08 50.51703 8.59266 24096 ft 461 kts 38°
2026-05-04 19:09 50.54238 8.62391 24638 ft 465 kts 37°
2026-05-04 19:09 50.56834 8.65472 25158 ft 469 kts 36°
2026-05-04 19:09 50.59444 8.68494 25669 ft 474 kts 35°
2026-05-04 19:09 50.62154 8.71595 26195 ft 478 kts 35°
2026-05-04 19:10 50.64829 8.74643 26670 ft 483 kts 35°
2026-05-04 19:10 50.67562 8.77759 27049 ft 486 kts 35°
2026-05-04 19:10 50.70306 8.80897 27451 ft 488 kts 35°
2026-05-04 19:10 50.73064 8.84059 27822 ft 492 kts 35°
2026-05-04 19:11 50.75845 8.87255 27934 ft 494 kts 35°
2026-05-04 19:11 50.78632 8.90467 28102 ft 496 kts 35°
2026-05-04 19:11 50.81418 8.93682 28695 ft 499 kts 35°
2026-05-04 19:11 50.84238 8.96941 29205 ft 503 kts 35°
2026-05-04 19:12 50.87071 9.00219 29693 ft 507 kts 35°
2026-05-04 19:12 50.92772 9.06834 30770 ft 508 kts 35°
2026-05-04 19:12 50.95624 9.10150 31325 ft 507 kts 35°
2026-05-04 19:13 50.98466 9.13461 31876 ft 507 kts 35°
2026-05-04 19:13 51.01278 9.16742 32378 ft 507 kts 35°
2026-05-04 19:13 51.04115 9.20055 32899 ft 506 kts 35°
2026-05-04 19:13 51.06940 9.23367 33417 ft 505 kts 35°
2026-05-04 19:14 51.09801 9.26603 33856 ft 504 kts 30°
2026-05-04 19:14 51.12904 9.29127 34235 ft 499 kts 18°
2026-05-04 19:14 51.16208 9.30731 34592 ft 494 kts 10°
2026-05-04 19:14 51.19571 9.31802 34896 ft 494 kts
2026-05-04 19:15 51.22962 9.32720 34966 ft 494 kts
2026-05-04 19:15 51.29732 9.34673 34986 ft 495 kts
2026-05-04 19:16 51.36484 9.36917 34975 ft 495 kts
2026-05-04 19:16 51.43218 9.39279 34993 ft 496 kts
2026-05-04 19:17 51.49965 9.41661 34994 ft 496 kts
2026-05-04 19:17 51.56718 9.44040 34980 ft 496 kts
2026-05-04 19:18 51.63464 9.46419 34981 ft 496 kts
2026-05-04 19:18 51.70224 9.48809 34986 ft 497 kts
2026-05-04 19:19 51.76944 9.51192 34979 ft 497 kts
2026-05-04 19:19 51.83675 9.53889 34975 ft 500 kts 17°
2026-05-04 19:20 51.90027 9.58600 34988 ft 505 kts 25°
2026-05-04 19:20 51.96223 9.64023 34979 ft 505 kts 26°
2026-05-04 19:21 52.02425 9.69364 34976 ft 505 kts 25°
2026-05-04 19:21 52.08658 9.74601 34972 ft 505 kts 24°
2026-05-04 19:22 52.14905 9.79825 34979 ft 504 kts 24°
2026-05-04 19:22 52.21108 9.85030 34967 ft 504 kts 24°
2026-05-04 19:23 52.27345 9.90260 34967 ft 504 kts 24°
2026-05-04 19:23 52.33594 9.95434 34961 ft 502 kts 24°
2026-05-04 19:24 52.39826 10.00578 34964 ft 501 kts 24°
2026-05-04 19:24 52.46050 10.05729 34965 ft 501 kts 24°
2026-05-04 19:25 52.52281 10.10907 34966 ft 502 kts 24°
2026-05-04 19:25 52.58507 10.16099 34984 ft 502 kts 23°
2026-05-04 19:26 52.64735 10.21310 34966 ft 502 kts 24°
2026-05-04 19:26 52.70938 10.26516 34961 ft 502 kts 24°
2026-05-04 19:27 52.77183 10.31774 34949 ft 502 kts 24°
2026-05-04 19:27 52.83367 10.36998 34952 ft 502 kts 23°
2026-05-04 19:28 52.89582 10.42265 34953 ft 502 kts 23°
2026-05-04 19:28 52.95793 10.47545 34952 ft 502 kts 24°
2026-05-04 19:29 53.01999 10.52865 34957 ft 502 kts 24°
2026-05-04 19:29 53.08205 10.58216 34957 ft 502 kts 24°
2026-05-04 19:30 53.14402 10.63550 34960 ft 502 kts 24°
2026-05-04 19:30 53.20580 10.68871 34955 ft 502 kts 24°
2026-05-04 19:31 53.26777 10.74225 34978 ft 501 kts 23°
2026-05-04 19:31 53.32941 10.79571 34957 ft 498 kts 23°
2026-05-04 19:32 53.39093 10.84922 34940 ft 495 kts 23°
2026-05-04 19:32 53.42145 10.87585 34814 ft 493 kts 23°
2026-05-04 19:32 53.45207 10.90259 33505 ft 498 kts 23°
2026-05-04 19:32 53.48292 10.92952 32102 ft 502 kts 23°
2026-05-04 19:33 53.51405 10.95676 30744 ft 506 kts 23°
2026-05-04 19:33 53.54546 10.98430 29191 ft 512 kts 24°
2026-05-04 19:33 53.57678 11.01186 28653 ft 509 kts 24°
2026-05-04 19:33 53.60845 11.03974 28249 ft 516 kts 24°
2026-05-04 19:34 53.64030 11.06785 28004 ft 517 kts 24°
2026-05-04 19:34 53.67181 11.09570 27974 ft 518 kts 24°
2026-05-04 19:34 53.70393 11.12418 27963 ft 507 kts 24°
2026-05-04 19:34 53.73425 11.15133 27980 ft 479 kts 24°
2026-05-04 19:35 53.76266 11.17696 27963 ft 463 kts 24°
2026-05-04 19:35 53.79135 11.20273 27961 ft 460 kts 24°
2026-05-04 19:35 53.81931 11.22771 27963 ft 459 kts 23°
2026-05-04 19:35 53.84756 11.25290 27963 ft 459 kts 23°
2026-05-04 19:36 53.87575 11.27806 27963 ft 459 kts 23°
2026-05-04 19:36 53.90402 11.30333 27966 ft 459 kts 23°
2026-05-04 19:36 53.93220 11.32857 27970 ft 459 kts 23°
2026-05-04 19:36 53.96022 11.35373 27320 ft 455 kts 24°
2026-05-04 19:37 53.98803 11.37877 26575 ft 450 kts 23°
2026-05-04 19:37 54.01554 11.40359 25863 ft 444 kts 23°
2026-05-04 19:37 54.04265 11.42807 25169 ft 438 kts 23°
2026-05-04 19:37 54.06942 11.45228 24488 ft 433 kts 23°
2026-05-04 19:38 54.09583 11.47617 23828 ft 428 kts 23°
2026-05-04 19:38 54.12201 11.49988 23115 ft 423 kts 23°
2026-05-04 19:38 54.14780 11.52328 22376 ft 417 kts 23°
2026-05-04 19:38 54.17325 11.54639 21655 ft 412 kts 23°
2026-05-04 19:39 54.19831 11.56919 21170 ft 404 kts 23°
2026-05-04 19:39 54.22322 11.59186 20786 ft 406 kts 23°
2026-05-04 19:39 54.24807 11.61450 20407 ft 403 kts 23°
2026-05-04 19:39 54.27265 11.63695 19881 ft 398 kts 24°
2026-05-04 19:40 54.29698 11.65919 19240 ft 395 kts 24°
2026-05-04 19:40 54.32108 11.68127 18631 ft 390 kts 24°
2026-05-04 19:40 54.34491 11.70312 18004 ft 386 kts 25°
2026-05-04 19:40 54.36845 11.72475 17336 ft 382 kts 25°
2026-05-04 19:41 54.39173 11.74617 16682 ft 377 kts 25°
2026-05-04 19:41 54.41476 11.76738 16046 ft 373 kts 25°
2026-05-04 19:41 54.42983 11.78127 15638 ft 371 kts 25°
2026-05-04 19:41 54.46002 11.80787 14862 ft 365 kts 22°
2026-05-04 19:42 54.48283 11.82645 14267 ft 361 kts 21°
2026-05-04 19:42 54.50551 11.84443 13681 ft 357 kts 21°
2026-05-04 19:42 54.52803 11.86214 13065 ft 354 kts 21°
2026-05-04 19:42 54.55033 11.87965 12456 ft 351 kts 21°
2026-05-04 19:43 54.56500 11.89118 12075 ft 348 kts 21°
2026-05-04 19:43 54.58722 11.90868 11468 ft 345 kts 21°
2026-05-04 19:43 54.60872 11.92571 10914 ft 342 kts 22°
2026-05-04 19:43 54.62964 11.94557 10365 ft 342 kts 28°
2026-05-04 19:44 54.64937 11.96742 10000 ft 334 kts 30°
2026-05-04 19:44 54.66859 11.98964 9599 ft 332 kts 31°
2026-05-04 19:44 54.68766 12.01193 9204 ft 329 kts 31°
2026-05-04 19:44 54.70670 12.03414 9013 ft 334 kts 31°
2026-05-04 19:45 54.72588 12.05648 8967 ft 333 kts 31°
2026-05-04 19:45 54.74514 12.07889 8964 ft 334 kts 31°
2026-05-04 19:45 54.76445 12.10136 8960 ft 334 kts 31°
2026-05-04 19:45 54.78367 12.12373 8960 ft 334 kts 31°
2026-05-04 19:46 54.80293 12.14616 8957 ft 333 kts 30°
2026-05-04 19:46 54.82225 12.16868 8960 ft 333 kts 31°
2026-05-04 19:46 54.84146 12.19108 8960 ft 333 kts 31°
2026-05-04 19:46 54.86075 12.21360 8960 ft 333 kts 31°
2026-05-04 19:47 54.87996 12.23606 8954 ft 329 kts 31°
2026-05-04 19:47 54.89807 12.25734 8947 ft 308 kts 30°
2026-05-04 19:47 54.91576 12.27813 8961 ft 300 kts 30°
2026-05-04 19:47 54.93278 12.29809 8954 ft 298 kts 30°
2026-05-04 19:48 54.94994 12.31824 8951 ft 298 kts 30°
2026-05-04 19:48 54.96710 12.33842 8953 ft 298 kts 30°
2026-05-04 19:48 54.98425 12.35860 8951 ft 297 kts 30°
2026-05-04 19:48 55.00139 12.37873 8953 ft 298 kts 30°
2026-05-04 19:49 55.01859 12.39888 8949 ft 297 kts 30°
2026-05-04 19:49 55.03579 12.41900 8953 ft 297 kts 30°
2026-05-04 19:49 55.05298 12.43911 8950 ft 298 kts 30°
2026-05-04 19:49 55.07018 12.45924 8949 ft 298 kts 30°
2026-05-04 19:50 55.08738 12.47938 8952 ft 298 kts 30°
2026-05-04 19:50 55.10458 12.49955 8949 ft 298 kts 30°
2026-05-04 19:50 55.12171 12.51967 8775 ft 295 kts 30°
2026-05-04 19:50 55.13880 12.53974 8304 ft 295 kts 30°
2026-05-04 19:51 55.15575 12.55968 7890 ft 293 kts 30°
2026-05-04 19:51 55.17261 12.57953 7491 ft 291 kts 30°
2026-05-04 19:51 55.18932 12.59922 7086 ft 289 kts 31°
2026-05-04 19:51 55.20591 12.61878 6690 ft 287 kts 31°
2026-05-04 19:52 55.22244 12.63812 6310 ft 283 kts 27°
2026-05-04 19:52 55.24010 12.65285 5916 ft 280 kts 17°
2026-05-04 19:52 55.25835 12.66423 5518 ft 277 kts 15°
2026-05-04 19:52 55.27652 12.67471 5141 ft 274 kts 15°
2026-05-04 19:53 55.29465 12.68500 4772 ft 273 kts 15°
2026-05-04 19:53 55.31263 12.69519 4387 ft 271 kts 15°
2026-05-04 19:53 55.33048 12.70534 4059 ft 266 kts 15°
2026-05-04 19:53 55.34781 12.71522 3993 ft 266 kts 15°
2026-05-04 19:54 55.36542 12.72526 3984 ft 266 kts 15°
2026-05-04 19:54 55.38304 12.73533 3985 ft 266 kts 15°
2026-05-04 19:54 55.40062 12.74538 3984 ft 266 kts 15°
2026-05-04 19:54 55.41817 12.75543 3983 ft 266 kts 15°
2026-05-04 19:55 55.43582 12.76554 3981 ft 266 kts 15°
2026-05-04 19:55 55.45342 12.77563 3981 ft 266 kts 15°
2026-05-04 19:55 55.47105 12.78576 3979 ft 266 kts 15°
2026-05-04 19:55 55.48863 12.79589 3983 ft 266 kts 15°
2026-05-04 19:56 55.50626 12.80606 3980 ft 266 kts 15°
2026-05-04 19:56 55.52390 12.81624 3985 ft 266 kts 15°
2026-05-04 19:56 55.54133 12.82632 3980 ft 266 kts 15°
2026-05-04 19:56 55.55888 12.83705 4003 ft 267 kts 18°
2026-05-04 19:57 55.57615 12.84903 4003 ft 267 kts 19°
2026-05-04 19:57 55.59339 12.86138 4004 ft 267 kts 19°
2026-05-04 19:57 55.61059 12.87379 4003 ft 267 kts 19°
2026-05-04 19:57 55.62699 12.88824 4000 ft 259 kts 32°
2026-05-04 19:58 55.64104 12.90657 3997 ft 244 kts 33°
2026-05-04 19:58 55.65450 12.92411 3994 ft 239 kts 33°
2026-05-04 19:58 55.66790 12.94150 3995 ft 239 kts 33°
2026-05-04 19:58 55.68131 12.95893 3994 ft 238 kts 33°
2026-05-04 19:59 55.69469 12.97632 3995 ft 239 kts 33°
2026-05-04 19:59 55.70808 12.99372 3992 ft 238 kts 33°
2026-05-04 19:59 55.72150 13.01122 3994 ft 239 kts 33°
2026-05-04 19:59 55.73476 13.02849 3989 ft 237 kts 30°
2026-05-04 20:00 55.74923 13.04089 3997 ft 220 kts 16°
2026-05-04 20:00 55.76343 13.04976 3992 ft 214 kts 15°
2026-05-04 20:00 55.77731 13.05833 3988 ft 213 kts 15°
2026-05-04 20:00 55.79157 13.06504 3968 ft 209 kts 358°
2026-05-04 20:01 55.80492 13.05877 3975 ft 199 kts 323°
2026-05-04 20:01 55.81332 13.04008 3988 ft 195 kts 288°
2026-05-04 20:01 55.81377 13.01641 3996 ft 195 kts 258°
2026-05-04 20:01 55.81004 12.99297 4003 ft 198 kts 255°
2026-05-04 20:02 55.80610 12.96953 3994 ft 198 kts 255°
2026-05-04 20:02 55.80146 12.94651 3972 ft 200 kts 240°
2026-05-04 20:02 55.79214 12.92862 4007 ft 202 kts 226°
2026-05-04 20:02 55.78172 12.91156 3993 ft 202 kts 226°
2026-05-04 20:03 55.77121 12.89477 3843 ft 204 kts 225°
2026-05-04 20:03 55.76069 12.87836 3569 ft 202 kts 224°
2026-05-04 20:03 55.75012 12.86189 3300 ft 200 kts 224°
2026-05-04 20:03 55.73987 12.84592 3026 ft 192 kts 225°
2026-05-04 20:04 55.73005 12.83062 2786 ft 183 kts 225°
2026-05-04 20:04 55.72055 12.81577 2552 ft 182 kts 225°
2026-05-04 20:04 55.71098 12.80081 2305 ft 183 kts 225°
2026-05-04 20:04 55.70146 12.78596 2057 ft 181 kts 225°
2026-05-04 20:05 55.69217 12.77146 1827 ft 181 kts 225°
2026-05-04 20:05 55.68272 12.75672 1570 ft 180 kts 225°
2026-05-04 20:05 55.67342 12.74225 1339 ft 168 kts 225°
2026-05-04 20:05 55.66502 12.72925 1051 ft 152 kts 225°
2026-05-04 20:06 55.65720 12.71703 895 ft 149 kts 224°
2026-05-04 20:06 55.64942 12.70488 693 ft 148 kts 223°
2026-05-04 20:06 55.64172 12.69300 476 ft 150 kts 223°
2026-05-04 20:06 55.63384 12.68097 311 ft 149 kts 224°
2026-05-04 20:07 55.62612 12.66866 122 ft 149 kts 223°
2026-05-04 20:07 55.61874 12.65711 34 ft 124 kts 221°
2026-05-04 20:07 55.61375 12.64943 32 ft 66 kts 222°
2026-05-04 20:07 55.61226 12.64458 31 ft 31 kts 252°
2026-05-04 20:08 55.61195 12.64216 31 ft 13 kts 276°
2026-05-04 20:08 55.61248 12.64117 31 ft 11 kts 343°
2026-05-04 20:08 55.61323 12.64159 31 ft 13 kts 29°
2026-05-04 20:08 55.61402 12.64250 31 ft 15 kts 33°
2026-05-04 20:09 55.61495 12.64357 31 ft 17 kts 33°
2026-05-04 20:09 55.61601 12.64478 30 ft 19 kts 33°
2026-05-04 20:09 55.61723 12.64616 30 ft 22 kts 33°
2026-05-04 20:09 55.61849 12.64762 31 ft 20 kts 33°
2026-05-04 20:10 55.61945 12.64872 31 ft 14 kts 32°
2026-05-04 20:10 55.62000 12.64978 31 ft 10 kts 81°
2026-05-04 20:10 55.61979 12.65092 30 ft 10 kts 119°
2026-05-04 20:10 55.61939 12.65213 30 ft 14 kts 123°
2026-05-04 20:11 55.61876 12.65382 28 ft 16 kts 123°
2026-05-04 20:11 55.61855 12.65439 30 ft 0 kts 123°
2026-05-04 20:13 55.61852 12.65448 30 ft 4 kts 123°
2026-05-04 20:13 55.61814 12.65549 31 ft 15 kts 123°
2026-05-04 20:13 55.61742 12.65742 33 ft 22 kts 123°
2026-05-04 20:13 55.61650 12.65987 33 ft 27 kts 123°
2026-05-04 20:14 55.61542 12.66278 31 ft 27 kts 123°
2026-05-04 20:14 55.61447 12.66539 31 ft 24 kts 123°
2026-05-04 20:14 55.61361 12.66772 32 ft 21 kts 123°
2026-05-04 20:14 55.61292 12.66973 32 ft 15 kts 108°
2026-05-04 20:15 55.61318 12.67084 32 ft 9 kts 38°
2026-05-04 20:15 55.61377 12.67126 31 ft 9 kts
2026-05-04 20:15 55.61438 12.67122 31 ft 8 kts 353°
2026-05-04 20:15 55.61494 12.67104 31 ft 8 kts 348°
2026-05-04 20:16 55.61545 12.67085 31 ft 7 kts 348°
2026-05-04 20:16 55.61591 12.67072 31 ft 5 kts
2026-05-04 20:16 55.61619 12.67105 30 ft 5 kts 51°
2026-05-04 20:16 55.61632 12.67169 31 ft 6 kts 75°
2026-05-04 20:17 55.61638 12.67213 31 ft 0 kts 78°